Wind_Speed
8 7 6 4 3 2 2 2 4 6 7 8 9 9 10 11 11 10 11 11 11 10 10 10 10 9 8 8 8 7 7 7 5 5 4 4 4 4 4 4 4 4 3 2 2 2 1 1 1
9 8 8 6 4 3 3 3 4 5 6 7 8 9 10 10 10 10 10 10 10 10 9 10 10 9 8 8 8 7 7 7 6 5 5 4 4 4 4 4 4 4 3 1 1 1 1 1 0
11 10 9 7 6 4 4 4 5 5 6 7 8 8 9 10 10 10 10 10 9 8 8 9 9 9 8 8 7 7 7 6 6 5 5 4 4 4 4 4 4 3 2 1 1 1 1 1 0
12 12 11 9 7 5 5 6 6 5 6 7 7 8 9 9 9 10 10 9 8 8 8 8 8 8 8 8 7 7 7 6 6 5 5 5 4 4 4 4 3 3 2 2 1 2 1 1 1
14 14 13 11 8 7 6 6 5 6 6 7 8 8 8 9 9 9 9 9 8 8 8 8 8 8 8 7 7 7 6 6 6 5 4 5 5 4 4 3 3 3 2 2 2 2 1 1 2
16 15 14 12 10 9 8 7 6 7 7 7 8 9 9 9 9 9 9 8 8 7 7 8 8 8 7 7 6 6 6 6 6 6 5 4 4 3 4 3 3 3 3 2 3 2 2 3 3
17 17 15 14 12 11 10 9 8 7 8 8 9 9 9 9 9 9 8 8 8 7 7 7 8 7 7 6 6 6 5 5 6 6 5 5 4 4 3 3 4 3 3 3 2 3 3 3 3
19 18 17 15 13 12 12 11 10 9 9 8 9 9 9 9 9 9 9 8 7 7 7 7 7 7 6 6 6 5 5 5 5 5 5 5 4 4 4 3 3 3 3 3 3 4 4 3 4
20 19 18 15 14 14 13 13 12 10 9 9 10 10 9 9 9 9 9 8 8 7 7 7 7 7 7 6 6 5 5 5 6 5 5 5 4 3 3 3 3 3 4 3 3 4 4 4 4
21 19 18 17 17 16 15 14 14 12 10 10 10 10 10 10 10 10 10 9 8 8 8 7 7 6 6 6 6 5 5 5 5 5 5 5 5 4 4 4 4 4 5 4 4 5 5 4 4
22 20 19 20 19 18 16 15 15 13 11 11 11 10 11 11 11 11 10 10 9 9 9 8 8 7 7 6 6 6 6 5 6 5 5 5 5 4 5 5 5 5 4 5 5 5 6 5 4
23 21 20 20 21 20 18 17 16 14 13 12 12 12 12 12 12 12 12 11 11 10 9 9 8 7 7 7 6 6 6 5 5 5 5 5 5 4 4 5 5 5 5 6 6 6 6 5 5
23 21 21 21 21 20 20 19 17 15 14 14 14 13 13 14 13 13 13 12 12 11 10 10 9 8 7 7 7 7 7 6 6 6 5 5 5 4 4 5 5 6 7 6 6 6 6 6 5
23 22 23 22 21 21 20 19 18 17 17 16 15 14 14 15 15 14 14 13 12 11 11 10 10 9 8 8 8 8 7 7 7 6 5 5 5 5 5 5 6 6 6 6 5 5 5 5 5
24 23 23 22 22 21 21 20 18 18 18 17 16 15 16 16 17 16 15 14 13 12 12 11 10 9 9 9 9 9 8 8 7 6 6 6 6 5 6 6 6 6 6 6 6 6 6 6 7
25 24 23 23 23 23 23 21 19 20 20 19 17 16 16 17 17 17 15 14 14 13 12 12 11 10 10 10 10 10 9 8 8 7 7 6 6 7 7 7 7 6 5 6 7 7 7 7 8
26 25 24 23 24 24 24 22 21 21 21 19 17 17 16 16 17 17 16 14 14 14 13 13 12 12 11 11 11 10 10 9 8 8 8 8 8 8 7 8 7 6 6 7 7 7 8 8 8
25 25 24 24 25 26 25 24 22 22 21 20 18 17 16 17 16 16 16 15 14 14 14 14 13 12 12 11 11 11 11 9 9 8 8 8 9 8 9 8 8 7 7 7 7 7 8 8 8
25 25 24 23 25 26 26 24 23 22 21 20 19 18 17 17 17 17 16 15 15 15 14 14 14 13 13 12 12 12 12 11 10 10 9 9 9 9 9 9 8 8 8 8 7 8 9 10 10
25 24 23 23 24 25 25 24 23 22 22 21 20 19 19 19 17 16 16 16 15 15 14 14 14 14 14 13 13 13 12 11 11 11 10 10 10 10 10 9 9 9 9 9 9 9 10 11 11
25 24 23 24 25 26 25 24 22 21 21 22 21 20 20 18 17 17 17 17 16 16 15 14 15 15 15 14 14 13 13 13 12 12 12 11 12 12 11 10 11 11 11 11 12 12 11 11 12
24 23 24 25 26 26 26 25 22 22 21 21 21 21 19 19 18 18 18 18 17 16 16 15 15 14 15 15 15 14 14 14 13 13 13 13 13 13 13 12 12 12 12 13 13 13 13 13 13
23 24 25 25 26 26 25 26 23 22 21 21 21 21 20 20 19 18 18 17 17 17 16 16 16 15 14 14 15 15 15 15 15 14 14 15 15 14 13 13 13 13 13 13 13 14 14 14 14
24 25 26 26 26 26 24 25 23 22 21 20 20 20 20 19 19 19 19 18 18 17 17 17 17 16 16 15 15 16 16 16 16 15 16 16 15 15 15 15 15 15 15 14 14 15 15 15 15
24 25 26 26 26 26 24 26 23 20 21 20 20 20 19 19 20 20 19 19 18 17 17 17 17 17 16 16 16 16 16 16 16 16 17 17 17 16 16 16 16 16 16 16 15 15 16 16 16
24 25 25 26 27 27 26 27 24 20 20 20 20 19 19 19 18 19 19 18 18 17 17 18 17 18 18 17 17 17 17 17 17 17 17 17 17 17 18 17 16 16 16 16 16 16 16 16 17
24 25 25 27 28 28 28 28 25 21 21 21 21 20 19 18 18 18 18 19 19 19 18 18 18 18 18 18 18 18 18 17 17 17 18 18 19 19 19 18 18 17 17 17 17 17 17 17 17
25 25 26 27 29 29 29 28 26 23 22 22 21 20 20 19 18 17 18 19 19 19 19 19 19 19 19 18 18 18 18 18 18 19 19 19 20 20 20 20 18 18 19 19 18 19 19 19 19
25 26 27 28 30 30 29 27 24 24 22 21 20 21 20 20 19 18 18 18 18 18 18 18 18 18 18 17 17 18 19 19 20 20 20 20 19 19 20 20 19 19 19 19 19 19 20 20 20
26 26 27 28 29 30 29 27 25 24 23 22 21 21 21 20 20 19 18 17 17 17 17 18 19 18 18 18 18 19 20 20 20 20 20 20 19 20 20 21 21 21 21 20 21 21 21 21 22
Wind_Direction
228 227 230 228 232 261 303 336 349 1 10 10 9 10 9 6 4 3 4 5 5 4 4 8 11 12 15 17 19 20 19 15 17 27 27 24 14 7 1 1 354 348 354 355 357 2 349 351 359
236 233 236 241 240 250 285 305 325 338 353 360 360 1 1 357 358 360 359 359 359 360 2 8 12 13 16 18 21 24 21 18 20 23 20 20 14 3 1 360 349 342 348 352 328 333 332 323 317
235 236 241 246 241 246 274 288 297 316 332 345 351 355 355 351 355 355 354 353 353 356 360 7 11 12 15 18 21 24 24 23 22 17 15 14 10 3 353 345 343 342 338 326 318 288 296 296 245
236 240 242 245 247 250 268 278 279 295 315 328 338 346 348 348 350 350 350 349 349 355 357 7 10 12 17 20 22 22 20 21 18 14 13 11 6 357 348 345 344 333 320 289 266 269 243 234 258
238 240 241 243 243 246 256 271 279 293 304 316 328 336 339 339 340 343 345 345 348 352 355 2 6 9 15 17 18 15 13 15 14 16 13 12 10 3 359 352 340 330 306 273 261 264 264 235 233
241 242 241 242 244 245 251 266 277 292 298 311 320 322 329 333 335 339 341 341 344 347 350 356 360 4 6 7 8 12 10 9 9 12 6 5 9 6 351 343 334 328 325 311 277 257 248 242 249
241 242 241 240 243 248 254 263 273 283 289 302 311 314 321 327 331 335 336 337 338 340 342 350 352 356 357 357 358 2 2 4 7 7 3 357 359 357 345 334 328 325 324 316 277 245 253 261 265
242 243 241 240 243 250 256 261 270 279 288 294 301 308 313 318 321 325 326 328 333 337 336 338 344 346 348 350 347 348 351 354 357 2 359 355 350 347 334 325 322 321 315 304 278 261 254 259 266
242 242 242 242 244 249 257 264 271 279 285 289 296 305 310 316 317 318 317 320 323 329 331 331 335 339 342 345 344 345 344 347 348 350 346 346 339 324 310 310 311 309 303 300 281 272 257 256 261
240 241 242 243 245 248 254 264 271 276 282 284 290 298 303 312 316 315 314 316 320 322 323 326 326 328 331 334 336 337 336 336 335 334 334 333 325 325 322 318 307 292 292 294 287 271 259 259 260
240 240 240 241 244 247 251 260 266 271 276 276 282 289 294 302 309 311 311 311 313 315 318 319 318 318 318 320 324 325 324 326 326 323 322 328 324 320 308 306 312 301 295 293 288 276 268 264 260
240 238 237 240 244 247 251 255 261 267 272 270 274 282 287 292 301 305 306 308 309 311 312 315 314 314 310 308 312 312 309 312 317 315 308 315 319 317 306 300 295 294 296 292 284 276 269 263 260
239 237 237 238 244 247 249 252 257 264 267 269 274 279 285 289 293 299 301 304 307 309 308 306 308 306 304 303 302 305 306 299 295 299 300 300 308 307 307 306 293 292 295 292 284 273 265 259 256
237 237 239 241 245 248 249 252 258 262 262 265 272 279 283 284 288 294 296 297 299 301 302 300 298 295 293 293 295 293 292 292 298 291 286 286 287 286 300 304 301 300 298 293 288 277 265 258 255
239 238 239 241 244 247 251 252 258 263 263 264 269 276 281 283 286 289 291 291 291 294 294 291 292 289 291 291 287 284 284 286 288 285 282 283 281 286 287 295 305 311 305 297 290 283 274 262 256
237 239 238 240 243 246 249 252 257 261 264 266 270 274 277 280 284 286 287 286 287 287 287 285 285 287 288 287 285 281 279 275 272 274 268 274 277 278 281 287 300 301 295 292 285 277 274 266 260
236 237 239 239 242 245 249 253 256 260 264 265 268 270 273 276 279 283 285 285 283 284 283 282 280 282 284 281 281 282 280 274 269 267 263 266 270 267 272 276 289 285 288 289 284 277 269 265 263
238 239 239 240 242 245 249 253 256 260 263 265 266 266 270 273 276 278 281 281 280 279 280 279 277 277 277 275 275 275 275 278 279 274 267 265 261 263 267 273 285 281 287 288 284 277 270 267 265
238 239 239 239 243 246 249 252 255 259 262 265 266 263 266 270 273 276 278 278 276 275 276 276 274 270 269 270 275 273 271 273 276 271 268 266 264 265 271 271 275 279 286 282 279 278 271 271 270
238 238 239 238 243 247 251 252 254 259 262 263 262 261 262 267 270 273 274 277 276 273 271 272 272 269 266 270 274 273 268 267 271 269 267 264 266 271 270 272 272 276 279 276 276 277 275 273 270
239 240 240 241 244 249 252 250 253 258 262 260 259 260 261 264 268 271 270 272 275 273 270 269 268 267 265 266 268 270 266 266 270 267 263 262 264 268 270 269 272 272 274 275 274 273 273 274 274
240 240 241 242 245 249 250 252 252 257 260 260 260 261 263 265 269 272 269 266 266 269 268 265 268 266 265 265 265 267 267 268 268 266 262 264 266 266 268 270 271 271 272 274 273 274 273 273 273
240 241 242 244 246 249 252 255 254 258 261 263 262 263 264 265 267 272 270 264 262 262 263 262 265 266 265 267 266 266 265 265 265 264 262 263 265 265 267 270 271 272 274 273 274 273 273 272 274
239 241 243 243 245 250 253 258 258 259 262 264 265 266 266 266 269 270 269 265 262 258 257 258 263 265 265 265 265 264 264 264 263 263 263 264 264 267 267 268 271 272 273 271 272 271 272 272 272
240 243 245 246 247 251 253 258 260 259 259 262 263 265 267 271 272 270 269 265 266 261 257 258 261 264 265 265 266 264 265 265 265 262 262 264 265 266 266 267 268 268 269 271 272 270 271 272 272
243 245 247 250 252 253 254 257 260 258 258 259 261 263 265 269 272 269 267 270 269 264 260 260 262 264 264 265 266 267 269 268 266 263 264 264 263 264 264 265 264 266 267 270 272 271 271 273 274
242 244 246 250 252 255 256 257 258 260 259 261 261 262 263 263 266 268 265 266 265 263 262 262 263 263 262 263 264 265 267 267 267 265 265 265 264 266 265 263 263 265 266 267 270 272 271 275 274
244 246 247 249 253 257 258 258 259 258 261 261 260 259 260 260 260 264 264 264 263 262 261 261 260 261 261 261 262 261 262 263 265 266 267 268 268 267 264 262 265 266 266 267 269 271 273 275 275
243 244 247 251 254 258 262 261 264 261 260 260 258 258 260 262 261 265 264 264 266 265 262 260 261 260 260 260 260 261 262 265 267 267 266 268 270 270 267 266 268 269 270 271 271 272 273 275 276
244 246 248 250 254 258 261 262 263 264 262 260 257 259 261 262 264 266 266 266 266 267 265 263 262 262 261 260 260 263 265 267 269 268 267 267 268 268 267 267 269 272 273 273 272 272 273 275 277
Height
5882 5883 5884 5885 5886 5886 5885 5885 5884 5884 5883 5883 5882 5882 5882 5881 5881 5883 5880 5878 5877 5876 5875 5873 5872 5870 5869 5868 5868 5867 5867 5867 5867 5867 5867 5867 5867 5867 5867 5867 5867 5868 5867 5868 5868 5868 5868 5869 5869
5882 5882 5884 5885 5885 5885 5885 5885 5884 5884 5884 5883 5882 5882 5882 5881 5880 5880 5879 5878 5877 5876 5875 5873 5872 5871 5870 5869 5868 5867 5867 5867 5866 5866 5867 5867 5867 5867 5867 5867 5867 5867 5867 5868 5868 5868 5868 5869 5869
5880 5882 5884 5884 5884 5885 5885 5884 5884 5883 5883 5883 5882 5882 5882 5881 5880 5880 5879 5878 5877 5876 5875 5874 5872 5871 5870 5869 5868 5867 5867 5867 5867 5867 5867 5867 5867 5867 5867 5867 5867 5867 5867 5867 5867 5868 5868 5868 5869
5880 5881 5882 5883 5883 5884 5884 5883 5883 5883 5883 5883 5882 5882 5882 5881 5880 5880 5879 5878 5877 5876 5875 5874 5872 5871 5870 5869 5868 5868 5867 5867 5867 5867 5867 5866 5866 5866 5866 5866 5866 5866 5867 5867 5867 5867 5867 5868 5869
5878 5880 5881 5881 5882 5882 5882 5882 5882 5882 5882 5882 5882 5882 5881 5881 5880 5879 5879 5878 5876 5876 5875 5873 5872 5871 5870 5870 5869 5868 5868 5867 5867 5867 5866 5866 5866 5866 5866 5866 5866 5866 5866 5866 5867 5866 5867 5868 5868
5877 5878 5879 5880 5880 5881 5880 5881 5881 5881 5882 5881 5881 5881 5881 5881 5880 5879 5878 5877 5876 5875 5874 5873 5872 5871 5870 5869 5869 5868 5868 5867 5867 5866 5866 5866 5866 5866 5866 5866 5866 5866 5866 5866 5866 5866 5867 5867 5868
5875 5876 5877 5878 5878 5878 5879 5879 5880 5880 5881 5881 5881 5880 5880 5880 5879 5878 5877 5876 5875 5875 5874 5873 5872 5871 5870 5869 5868 5868 5868 5867 5867 5866 5866 5866 5865 5865 5865 5865 5865 5865 5865 5865 5865 5865 5866 5866 5867
5872 5874 5874 5876 5876 5877 5877 5878 5878 5879 5879 5880 5880 5880 5879 5879 5878 5877 5876 5876 5875 5874 5873 5872 5871 5870 5869 5869 5868 5867 5867 5867 5866 5866 5865 5865 5865 5865 5865 5864 5864 5864 5864 5864 5864 5865 5865 5865 5866
5869 5872 5872 5874 5874 5875 5875 5876 5877 5878 5878 5878 5878 5878 5878 5878 5877 5876 5875 5875 5874 5873 5872 5871 5871 5870 5869 5868 5868 5867 5867 5866 5866 5865 5865 5865 5864 5864 5864 5864 5864 5863 5863 5863 5863 5864 5864 5864 5865
5866 5869 5871 5871 5872 5873 5873 5874 5875 5876 5876 5876 5876 5876 5876 5876 5876 5875 5874 5873 5873 5872 5871 5870 5870 5869 5868 5868 5867 5867 5866 5866 5865 5865 5864 5864 5863 5862 5862 5863 5863 5863 5863 5863 5863 5863 5863 5863 5864
5863 5866 5867 5868 5869 5870 5871 5872 5872 5873 5874 5874 5874 5875 5875 5875 5874 5874 5873 5872 5872 5871 5870 5869 5868 5868 5867 5867 5866 5866 5865 5865 5864 5863 5863 5863 5863 5862 5862 5862 5862 5862 5862 5862 5862 5862 5862 5862 5863
5860 5862 5864 5865 5865 5867 5868 5869 5870 5871 5872 5872 5872 5872 5872 5872 5872 5872 5871 5870 5870 5869 5869 5868 5867 5866 5866 5865 5865 5865 5864 5864 5863 5863 5862 5862 5862 5862 5862 5861 5861 5861 5861 5861 5861 5861 5861 5861 5862
5855 5858 5860 5861 5862 5864 5865 5866 5867 5868 5869 5869 5869 5870 5870 5870 5870 5869 5869 5868 5868 5867 5867 5866 5865 5865 5864 5864 5864 5863 5863 5862 5862 5862 5861 5861 5861 5861 5860 5860 5860 5860 5859 5859 5859 5859 5859 5860 5860
5852 5854 5856 5858 5859 5860 5862 5863 5865 5866 5866 5866 5867 5867 5867 5867 5866 5866 5866 5866 5865 5865 5865 5864 5864 5863 5863 5862 5862 5861 5861 5861 5860 5860 5860 5860 5860 5860 5859 5859 5859 5859 5858 5858 5858 5858 5858 5858 5859
5848 5850 5852 5854 5856 5857 5858 5860 5862 5862 5862 5863 5864 5864 5864 5863 5863 5863 5863 5863 5863 5863 5862 5862 5861 5861 5861 5860 5860 5859 5859 5859 5858 5858 5858 5858 5858 5858 5858 5858 5858 5857 5857 5857 5857 5857 5857 5857 5858
5843 5846 5849 5851 5852 5853 5855 5857 5858 5858 5858 5859 5860 5861 5861 5861 5860 5860 5860 5860 5860 5859 5859 5859 5859 5859 5858 5858 5857 5857 5857 5857 5857 5856 5856 5856 5856 5856 5856 5856 5856 5856 5855 5855 5855 5855 5855 5856 5856
5839 5842 5844 5847 5847 5848 5850 5852 5854 5854 5854 5855 5856 5857 5857 5857 5857 5856 5856 5856 5856 5856 5856 5856 5856 5856 5856 5855 5854 5854 5854 5854 5854 5854 5854 5854 5854 5854 5854 5854 5854 5854 5854 5854 5854 5853 5853 5854 5854
5836 5838 5840 5842 5843 5844 5845 5847 5849 5849 5850 5851 5852 5853 5853 5853 5853 5853 5852 5852 5852 5852 5853 5853 5853 5853 5852 5852 5852 5852 5851 5851 5852 5852 5851 5852 5852 5852 5852 5852 5852 5852 5852 5852 5852 5852 5851 5852 5852
5831 5833 5836 5838 5839 5840 5841 5843 5844 5845 5846 5847 5848 5848 5849 5849 5849 5849 5849 5848 5848 5849 5849 5849 5849 5849 5849 5849 5849 5849 5849 5849 5849 5849 5849 5849 5849 5850 5850 5850 5850 5850 5850 5850 5850 5849 5849 5849 5850
5826 5829 5832 5834 5834 5835 5836 5838 5840 5840 5842 5843 5843 5844 5844 5845 5845 5845 5845 5845 5845 5845 5845 5845 5845 5846 5846 5846 5846 5846 5846 5846 5846 5847 5847 5847 5847 5848 5848 5848 5848 5848 5848 5848 5848 5847 5847 5847 5847
5822 5825 5827 5829 5829 5830 5832 5834 5835 5836 5837 5838 5838 5839 5839 5840 5840 5841 5840 5841 5841 5841 5841 5842 5842 5842 5842 5842 5842 5842 5843 5843 5843 5844 5844 5844 5844 5845 5845 5845 5845 5845 5845 5845 5845 5844 5844 5844 5844
5818 5821 5822 5823 5824 5825 5827 5828 5831 5831 5832 5833 5834 5834 5835 5836 5836 5836 5836 5836 5837 5837 5838 5838 5838 5838 5838 5839 5839 5839 5840 5840 5840 5840 5841 5841 5841 5842 5842 5842 5842 5842 5842 5842 5841 5841 5841 5841 5841
5814 5815 5817 5818 5819 5821 5822 5823 5827 5827 5828 5829 5830 5830 5830 5831 5831 5831 5831 5832 5832 5833 5833 5834 5834 5834 5835 5835 5835 5835 5836 5836 5836 5837 5837 5838 5838 5838 5839 5839 5838 5839 5838 5838 5838 5838 5837 5837 5837
5808 5810 5811 5813 5814 5816 5818 5818 5821 5823 5824 5824 5825 5825 5825 5826 5826 5827 5827 5827 5828 5828 5829 5829 5829 5830 5830 5830 5831 5831 5832 5832 5832 5833 5834 5834 5834 5835 5835 5835 5835 5835 5835 5835 5834 5834 5833 5833 5833
5803 5805 5807 5808 5809 5811 5814 5813 5817 5818 5819 5820 5821 5821 5821 5822 5822 5822 5822 5823 5823 5823 5824 5824 5825 5825 5825 5825 5826 5827 5828 5828 5828 5829 5829 5830 5830 5830 5831 5831 5831 5831 5831 5831 5830 5830 5829 5829 5829
5798 5800 5803 5804 5805 5807 5808 5808 5812 5814 5815 5815 5816 5817 5817 5817 5818 5818 5818 5818 5818 5819 5819 5819 5820 5820 5820 5821 5822 5822 5823 5823 5824 5824 5825 5826 5826 5826 5827 5827 5827 5826 5826 5826 5826 5826 5825 5825 5824
5793 5794 5797 5799 5799 5800 5802 5804 5807 5809 5810 5810 5811 5812 5812 5813 5813 5813 5813 5814 5814 5814 5814 5814 5814 5815 5815 5816 5817 5817 5818 5819 5819 5820 5821 5821 5822 5822 5822 5822 5822 5822 5822 5822 5822 5822 5821 5820 5819
5788 5790 5791 5792 5793 5794 5796 5798 5801 5804 5805 5806 5806 5807 5807 5808 5808 5808 5808 5808 5808 5808 5808 5809 5809 5810 5810 5811 5811 5812 5813 5814 5815 5816 5816 5816 5816 5817 5817 5817 5817 5817 5817 5817 5817 5817 5816 5816 5815
5782 5784 5785 5786 5788 5789 5790 5795 5796 5797 5799 5800 5801 5801 5802 5803 5803 5803 5802 5803 5803 5803 5803 5804 5805 5805 5805 5806 5806 5807 5808 5809 5810 5810 5811 5811 5811 5811 5812 5812 5812 5812 5812 5812 5812 5812 5811 5811 5810
5776 5778 5780 5781 5782 5783 5785 5790 5790 5791 5792 5793 5794 5795 5796 5797 5797 5797 5798 5798 5798 5798 5798 5799 5800 5800 5800 5801 5802 5802 5802 5803 5804 5805 5805 5805 5806 5806 5806 5806 5806 5806 5807 5806 5806 5806 5806 5805 5804